Regional Weather Roundup
Issued by NWS

Home | Current Version | Previous Version | Text Only | Print | Product List | Glossary On
Versions: 1 2 3 4 5 6 7 8 9 10 11 12 13 14 15 16 17 18 19 20 21 22 23 24 25 26 27 28 29 30 31 32 33 34 35 36 37 38 39 40 41 42 43 44 45 46 47 48 49 50
000
ASUS44 KEWX 291611
RWRTX
SOUTH TEXAS REGIONAL WEATHER ROUNDUP
NATIONAL WEATHER SERVICE AUSTIN/SAN ANTONIO TX
1100 AM CDT SUN MAR 29 2015

NOTE: "FAIR" INDICATED FEW OR NO CLOUDS BELOW 12,000 FEET WITH NO
SIGNIFICANT WEATHER AND/OR OBSTRUCTIONS TO VISIBILITY.

* - THESE STATIONS ARE NOT NWS OR FAA STATIONS...AND ARE NOT SUBJECT
    TO NWS AND FAA QUALITY CONTROL.

TXZ171-172-183>190-291700-
TEXAS HILL COUNTRY AND EDWARDS PLATEAU

CITY           SKY/WX    TMP DP  RH WIND       PRES   REMARKS
JUNCTION       SUNNY     74  51  44 S10       30.08R
*LLANO         SUNNY     75  55  50 S14       30.10S
BURNET         SUNNY     70  56  61 S10G21    30.11R
*HORSESHOE BAY SUNNY     76  56  50 S9        30.09R
*KERRVILLE     SUNNY     68  58  69 S14       30.14R
*FREDERICKSBRG SUNNY     69  55  60 SW18G24   30.11S
*ROCKSPRINGS   SUNNY     68  52  56 S13       30.14R
*BOERNE STAGE  SUNNY     68  54  60 S9        30.15R
*CASTROVILLE   SUNNY     69  57  67 S8        30.15S
HONDO          SUNNY     67  57  70 MISG      30.15R
*UVALDE        SUNNY     67  56  69 SE8       30.12S
DEL RIO        SUNNY     67  53  61 E8        30.09R
LAUGHLIN AFB   SUNNY     67  55  64 SE8       30.09S
CARRIZO SPRGS  SUNNY     68  55  64 S9        30.09R
$$

TXZ173-191>194-202-209-217>225-228-291700-
CENTRAL AND SOUTH CENTRAL TEXAS

CITY           SKY/WX    TMP DP  RH WIND       PRES   REMARKS
GEORGETOWN     SUNNY     72  55  56 S23G29    30.09R
AUSTIN/BERGSTM MOSUNNY   70  60  70 S17G26    30.12S
AUSTIN/MABRY   SUNNY     70  58  65 S8G20     30.12S
*AUSTIN/EXEC     N/A     68  59  73 S17       30.12S
*LAGO VISTA    SUNNY     71  56  59 S12G21    30.11S
SAN MARCOS     SUNNY     70  57  64 SW21G28   30.14R
NEW BRAUNFELS  SUNNY     71  59  65 SW16      30.13R
RANDOLPH AFB   SUNNY     68  59  73 S12       30.14S
PT SAN ANTONIO SUNNY     69  60  74 S8        30.13R
SAN ANTONIO    MOSUNNY   68  58  70 S14       30.14R
STINSON FIELD  MOSUNNY   69  58  67 S13       30.13R
*PLEASANTON    SUNNY     70  59  68 S9        30.14R
*LA GRANGE     MOSUNNY   71  62  73 S20G25    30.14R
*GIDDINGS      SUNNY     69  60  73 S12G20    30.18R
*GONZALES      MOSUNNY   73  63  70 S16       30.14S
$$

TXZ163>164-176>182-195>201-210>213-226-227-235-291700-
SOUTHEAST TEXAS

CITY           SKY/WX    TMP DP  RH WIND       PRES   REMARKS
COLLEGE STN    SUNNY     71  59  65 S15G25    30.15R
*BRYAN         MOSUNNY   71  61  71 S14G21    30.16S
*CALDWELL      SUNNY     70  61  73 S16G23    30.17S
*CROCKETT      SUNNY     73  63  68 S14G26    30.18S
*BRENHAM       SUNNY     73  60  63 SW18G25   30.16S
HUNTSVILLE     MOSUNNY   71  59  65 S16G29    30.17R
CONROE         PTSUNNY   70  60  70 SW15      30.19S
HOUSTON BUSH   PTSUNNY   71  62  73 S17G25    30.19R
HOUSTON HOBBY  PTSUNNY   72  63  73 S14G22    30.19R
*HOUSTON SW AP PTSUNNY   70  64  80 S12G20    30.20R
PEARLAND       MOSUNNY   75  62  64 S16G24    30.20S
HOUSTON HOOKS  PTSUNNY   72  62  71 SW13      30.19R
ELLINGTON FLD  PTSUNNY   75  64  69 S14       30.21R
SUGAR LAND     CLOUDY    72  64  76 S16G24    30.18S
*HOUSTON EXEC  PTSUNNY   72  64  78 S15G22    30.19S
*CLEVELAND MUN MOSUNNY   74  64  68 S16G24    30.20S HAZE
*WHARTON       MOSUNNY   74  63  68 S22G28    30.19R
*COLUMBUS      FAIR      72  62  71 S16G22    30.16S
$$

TXZ214>216-236>238-291700-
THE UPPER TEXAS COAST

CITY           SKY/WX    TMP DP  RH WIND       PRES   REMARKS
*ORANGE        MOSUNNY   74  62  66 S13       30.24R
PORT ARTHUR    PTSUNNY   75  63  66 S14G21    30.21R
GALVESTON      SUNNY     72  66  81 S14       30.22R
ANGLETON       PTSUNNY   72  63  73 S21G28    30.20R
*BAY CITY      PTSUNNY   74  65  74 S18G24    30.19R
PALACIOS       SUNNY     73  64  73 S16       30.18R
$$

TXZ229>234-239>247-291700-
TEXAS COASTAL BEND AND RIO GRANDE PLAINS

CITY           SKY/WX    TMP DP  RH WIND       PRES   REMARKS
VICTORIA       SUNNY     75  61  61 S18G29    30.16S
*BEEVILLE      MOSUNNY   73  64  73 S17G26    30.14S
ROCKPORT       SUNNY     75  63  66 S16G23    30.17R
*PORT ARANSAS  SUNNY     71  65  81 S9        30.17R
*PORT LAVACA   SUNNY     74  63  66 S21G26    30.18R
*INGLESIDE     SUNNY     75  64  67 S22G30    30.15S
CORPUS CHRISTI MOSUNNY   73  63  70 S23       30.14R
CORPUS NAS     SUNNY     74  64  71 S16G26    30.16R
*ROBSTOWN      SUNNY     75  63  64 MISG      30.15R
ALICE          SUNNY     75  61  61 S21G26    30.13R
KINGSVILLE NAS SUNNY     76  65  68 S22       30.13S
COTULLA        SUNNY     71  57  61 S8G17     30.11R
*FAITH RANCH   SUNNY     70  57  64 SE10      30.09S
LAREDO         SUNNY     74  57  55 SE16      30.12R
$$

TXZ248>255-291700-
DEEP SOUTH TEXAS

CITY           SKY/WX    TMP DP  RH WIND       PRES   REMARKS
BROWNSVILLE    MOSUNNY   78  63  59 S26G33    30.17R
PORT ISABEL    SUNNY     76  63  64 S20G31    30.16R
*SOUTH PADRE   SUNNY     72  64  78 S12       30.18R
HARLINGEN      MOSUNNY   77  64  64 S21G31    30.14R
*HEBBRONVILLE  NOT AVBL
MCALLEN        SUNNY     77  62  59 S24G32    30.14R
*WESLACO       MOSUNNY   75  62  65 S22G30    30.15R
FALFURRIAS     SUNNY     75  62  64 S20       30.13S
EDINBURG       SUNNY     77  61  57 S18G29    30.14S
*ZAPATA        SUNNY     73  56  55 SE10      30.10R
$$

TXZ213>215-236>238-242>244-246-247-251-254-255-291700-
CMAN STATIONS

STATION/POSITION TIME  TEMP    WIND        PRES    WAVE
                       AIR SEA DIR/SP/G            HT/PER
                 (UTC) (F)     (DEG/KT/KT) (MB)    (FT/S)
$$

GMZ080-GMZ150>470-291700-
OFFSHORE BUOY REPORTS

STATION/POSITION TIME  TEMP    WIND        PRES    WAVE
                       AIR SEA DIR/SP/G            HT/PER
                 (UTC) (F)     (DEG/KT/KT) (MB)    (FT/S)
$$



USA.gov is the U.S. government's official web portal to all federal, state and local government web resources and services.